Location: Antin
(43.3330°N, 0.2804°E)
Time: 04:17:55
(UTC+00:00)

Cosmos 1727 Rocket - Pass Details

Date: 16 October 2021
Orbit: 960 x 997 km, 82.9° (Epoch: 02 December)

Event Time Altitude Azimuth Distance (km) Brightness Sun altitude
Rises 18:12:36 0° 351° (N) 3,683 7.1 -11.4°
Reaches altitude 10° 18:15:07 10° 350° (N) 2,727 6.5 -11.9°
Maximum altitude 18:21:22 82° 264° (W) 982 4.1 -13.0°
Drops below altitude 10° 18:27:31 10° 178° (S) 2,689 6.3 -14.1°
Sets 18:30:00 0° 178° (S) 3,630 7.0 -14.6°
